• In Russia
  • List of Countries
  • For 7 days
  • Water Temperature
  • Satellite Maps
  • Weather Map
  • Weather Widgets
  • user-avatar
    Login

    Hourly Weather Kitzbuhel

    Today, 27 March, Monday

    Time Temperature Precipitation Wind Pressure Humidity
    00:00 -1°C° 0 mm 1 mps 679 mmHg 93%
    01:00 -2°C° 0 mm 1 mps 679 mmHg 92%
    02:00 -1°C° 0 mm 1 mps 679 mmHg 91%
    03:00 -1°C° 0 mm 1 mps 679 mmHg 90%
    04:00 -1°C° 0 mm 1 mps 679 mmHg 89%
    05:00 0°C° 0 mm 1 mps 679 mmHg 87%
    06:00 -1°C° 0 mm 2 mps 679 mmHg 85%
    07:00 +1°C° 0 mm 2 mps 680 mmHg 79%
    08:00 +4°C° 0 mm 2 mps 680 mmHg 74%
    09:00 +6°C° 0 mm 2 mps 681 mmHg 70%
    10:00 +9°C° 0 mm 1 mps 681 mmHg 66%
    11:00 +10°C° 0 mm 1 mps 681 mmHg 63%
    12:00 +11°C° 0 mm 1 mps 680 mmHg 61%
    13:00 +13°C° 0 mm 1 mps 680 mmHg 57%
    14:00 +12°C° 0 mm 1 mps 680 mmHg 60%
    15:00 +12°C° 0 mm 1 mps 680 mmHg 62%
    16:00 +12°C° 0 mm 1 mps 680 mmHg 64%
    17:00 +9°C° 0 mm 1 mps 679 mmHg 72%
    18:00 +5°C° 0 mm 1 mps 679 mmHg 80%
    19:00 +2°C° 0 mm 1 mps 678 mmHg 88%
    20:00 +2°C° 0 mm 1 mps 678 mmHg 87%
    21:00 +2°C° 0 mm 1 mps 679 mmHg 87%
    22:00 +2°C° 0 mm 1 mps 679 mmHg 86%
    23:00 +2°C° 0 mm 1 mps 679 mmHg 85%

    Tomorrow, 28 March, Tuesday

    Time Temperature Precipitation Wind Pressure Humidity
    00:00 +2°C° 0 mm 1 mps 679 mmHg 83%
    01:00 +2°C° 0 mm 1 mps 679 mmHg 82%
    02:00 +1°C° 0 mm 1 mps 679 mmHg 81%
    03:00 +1°C° 0 mm 1 mps 679 mmHg 80%
    04:00 +1°C° 0 mm 1 mps 679 mmHg 79%
    05:00 +2°C° 0 mm 1 mps 679 mmHg 78%
    06:00 +3°C° 0 mm 1 mps 679 mmHg 76%
    07:00 +4°C° 0 mm 1 mps 680 mmHg 75%
    08:00 +6°C° 0 mm 1 mps 680 mmHg 71%
    09:00 +9°C° 0 mm 1 mps 681 mmHg 68%
    10:00 +12°C° 0 mm 1 mps 681 mmHg 65%
    11:00 +12°C° 0 mm 1 mps 681 mmHg 64%
    12:00 +13°C° 0 mm 1 mps 682 mmHg 63%
    13:00 +14°C° 0 mm 1 mps 682 mmHg 61%
    14:00 +13°C° 0 mm 1 mps 681 mmHg 64%
    15:00 +13°C° 0 mm 1 mps 681 mmHg 67%
    16:00 +13°C° 0 mm 1 mps 681 mmHg 70%
    17:00 +11°C° 0 mm 1 mps 681 mmHg 78%
    18:00 +8°C° 0 mm 1 mps 680 mmHg 86%
    19:00 +6°C° 0 mm 1 mps 680 mmHg 93%
    20:00 +6°C° 0 mm 1 mps 680 mmHg 94%
    21:00 +5°C° 0 mm 1 mps 681 mmHg 94%
    22:00 +5°C° 0 mm 1 mps 681 mmHg 94%
    23:00 +5°C° 0 mm 1 mps 681 mmHg 94%

    Day after tomorrow, 29 March, Wednesday

    Time Temperature Precipitation Wind Pressure Humidity
    00:00 +5°C° 0 mm 1 mps 682 mmHg 94%
    01:00 +4°C° 0 mm 2 mps 682 mmHg 94%
    02:00 +4°C° 0 mm 2 mps 682 mmHg 93%
    03:00 +4°C° 0 mm 2 mps 682 mmHg 93%
    04:00 +5°C° 0 mm 1 mps 682 mmHg 93%
    05:00 +6°C° 0 mm 1 mps 682 mmHg 93%
    06:00 +6°C° 0 mm 1 mps 683 mmHg 92%
    07:00 +7°C° 0 mm 1 mps 683 mmHg 91%
    08:00 +8°C° 0 mm 1 mps 683 mmHg 87%
    09:00 +10°C° 0 mm 1 mps 683 mmHg 82%
    10:00 +11°C° 0 mm 1 mps 684 mmHg 78%
    11:00 +12°C° 0 mm 1 mps 683 mmHg 74%
    12:00 +13°C° 0 mm 1 mps 683 mmHg 71%
    13:00 +14°C° 0 mm 1 mps 683 mmHg 67%
    14:00 +14°C° 0 mm 1 mps 683 mmHg 68%
    15:00 +14°C° 0 mm 1 mps 683 mmHg 69%
    16:00 +13°C° 0 mm 1 mps 682 mmHg 71%
    17:00 +11°C° 0 mm 1 mps 682 mmHg 79%
    18:00 +9°C° 0 mm 1 mps 682 mmHg 87%
    19:00 +6°C° 0 mm 1 mps 681 mmHg 95%
    20:00 +6°C° 0 mm 1 mps 682 mmHg 95%
    21:00 +6°C° 0 mm 1 mps 682 mmHg 95%
    22:00 +6°C° 0 mm 1 mps 683 mmHg 96%
    23:00 +6°C° 0 mm 1 mps 683 mmHg 95%

    30 March, Thursday

    Time Temperature Precipitation Wind Pressure Humidity
    00:00 +5°C° 0 mm 1 mps 683 mmHg 95%
    01:00 +5°C° 0 mm 1 mps 683 mmHg 95%
    02:00 +5°C° 0 mm 1 mps 683 mmHg 94%
    03:00 +4°C° 0 mm 1 mps 683 mmHg 94%
    04:00 +4°C° 0 mm 1 mps 682 mmHg 93%
    05:00 +5°C° 0 mm 1 mps 683 mmHg 92%
    06:00 +5°C° 0 mm 1 mps 683 mmHg 90%
    07:00 +5°C° 0 mm 0 mps 683 mmHg 88%
    08:00 +8°C° 0 mm 1 mps 684 mmHg 81%
    09:00 +11°C° 0 mm 1 mps 684 mmHg 74%
    10:00 +13°C° 0 mm 1 mps 684 mmHg 67%
    11:00 +14°C° 0 mm 1 mps 684 mmHg 64%
    12:00 +14°C° 0 mm 1 mps 684 mmHg 61%
    13:00 +15°C° 0 mm 1 mps 684 mmHg 58%
    14:00 +15°C° 0 mm 1 mps 684 mmHg 60%
    15:00 +15°C° 0 mm 1 mps 683 mmHg 61%
    16:00 +15°C° 0 mm 1 mps 683 mmHg 62%
    17:00 +12°C° 0 mm 1 mps 683 mmHg 72%
    18:00 +9°C° 0 mm 1 mps 682 mmHg 81%
    19:00 +7°C° 0 mm 1 mps 681 mmHg 91%
    20:00 +7°C° 0 mm 1 mps 682 mmHg 90%
    21:00 +7°C° 0 mm 1 mps 682 mmHg 90%
    22:00 +6°C° 0 mm 2 mps 682 mmHg 89%
    23:00 +6°C° 0 mm 2 mps 682 mmHg 88%

    31 March, Friday

    Time Temperature Precipitation Wind Pressure Humidity
    00:00 +5°C° 0 mm 2 mps 682 mmHg 87%
    01:00 +5°C° 0 mm 2 mps 682 mmHg 87%
    02:00 +5°C° 0 mm 2 mps 682 mmHg 87%
    03:00 +5°C° 0 mm 2 mps 681 mmHg 87%
    04:00 +5°C° 0 mm 2 mps 681 mmHg 87%
    05:00 +5°C° 0 mm 2 mps 681 mmHg 86%
    06:00 +6°C° 0 mm 2 mps 681 mmHg 85%
    07:00 +6°C° 0 mm 2 mps 681 mmHg 84%
    08:00 +9°C° 0 mm 2 mps 681 mmHg 76%
    09:00 +12°C° 0 mm 1 mps 681 mmHg 68%
    10:00 +15°C° 0 mm 1 mps 681 mmHg 60%
    11:00 +16°C° 0 mm 1 mps 681 mmHg 57%
    12:00 +18°C° 0 mm 1 mps 681 mmHg 54%
    13:00 +18°C° 0 mm 2 mps 680 mmHg 51%
    14:00 +17°C° 0 mm 2 mps 680 mmHg 54%
    15:00 +17°C° 0 mm 2 mps 679 mmHg 56%
    16:00 +17°C° 0 mm 2 mps 679 mmHg 59%
    17:00 +14°C° 0 mm 2 mps 678 mmHg 70%
    18:00 +10°C° 0 mm 2 mps 677 mmHg 80%
    19:00 +8°C° 0 mm 2 mps 677 mmHg 91%
    20:00 +7°C° 0 mm 2 mps 677 mmHg 90%
    21:00 +7°C° 0 mm 2 mps 677 mmHg 89%
    22:00 +6°C° 0 mm 2 mps 677 mmHg 88%
    23:00 +6°C° 0 mm 2 mps 677 mmHg 88%

    1 April, Saturday

    Time Temperature Precipitation Wind Pressure Humidity
    00:00 +6°C° 0 mm 2 mps 676 mmHg 88%
    01:00 +6°C° 0 mm 2 mps 676 mmHg 88%
    02:00 +5°C° 0 mm 2 mps 676 mmHg 87%
    03:00 +5°C° 0 mm 2 mps 676 mmHg 87%
    04:00 +5°C° 0 mm 2 mps 675 mmHg 87%
    05:00 +5°C° 0 mm 2 mps 675 mmHg 86%
    06:00 +5°C° 0 mm 2 mps 676 mmHg 84%
    07:00 +6°C° 0 mm 2 mps 676 mmHg 83%
    08:00 +8°C° 0 mm 2 mps 676 mmHg 74%
    09:00 +12°C° 0 mm 1 mps 676 mmHg 65%
    10:00 +14°C° 0 mm 1 mps 677 mmHg 56%
    11:00 +15°C° 0 mm 1 mps 677 mmHg 54%
    12:00 +16°C° 0 mm 1 mps 676 mmHg 53%
    13:00 +16°C° 0 mm 2 mps 676 mmHg 51%
    14:00 +16°C° 0 mm 2 mps 676 mmHg 55%
    15:00 +16°C° 0 mm 2 mps 676 mmHg 59%
    16:00 +15°C° 0 mm 2 mps 676 mmHg 63%
    17:00 +13°C° 0.3 mm 2 mps 675 mmHg 72%
    18:00 +10°C° 0.3 mm 1 mps 675 mmHg 82%
    19:00 +8°C° 0.3 mm 1 mps 674 mmHg 92%
    20:00 +7°C° 0.2 mm 1 mps 675 mmHg 92%
    21:00 +7°C° 0.2 mm 1 mps 675 mmHg 91%
    22:00 +7°C° 0.2 mm 1 mps 675 mmHg 91%
    23:00 +6°C° 0 mm 2 mps 676 mmHg 90%
    Show more